Wind_Speed
16 15 14 14 13 13 12 12 13 14 13 12 12 13 14 15 15 15 16 16 16 15 15 13 12 13 11 11 11 12 15 19 22 23 22 21 21 20 19 17 15 12 11 9
16 16 15 15 14 13 12 12 12 13 13 12 11 12 15 15 15 15 15 15 15 14 14 13 11 11 9 10 11 12 14 18 22 23 21 20 20 20 18 17 16 14 12 10
17 17 16 15 13 12 12 12 13 13 12 12 11 12 14 14 14 14 15 14 13 13 13 11 10 9 8 9 9 11 14 19 21 21 21 21 20 19 18 17 16 14 13 11
18 17 16 15 14 12 13 13 13 13 12 12 12 10 13 14 14 14 13 13 13 12 12 10 10 9 8 7 7 9 13 17 21 22 20 21 20 19 18 17 16 14 13 12
18 17 16 15 14 14 14 15 14 13 12 12 12 11 11 13 13 13 12 12 12 11 10 11 10 9 7 6 7 8 12 15 19 20 19 20 20 19 19 18 16 15 14 13
19 17 16 15 15 15 14 14 13 13 12 12 12 11 10 12 12 12 12 11 11 10 9 9 9 8 6 5 5 7 11 13 17 19 19 19 19 19 18 18 17 16 15 14
18 17 16 16 16 16 15 13 13 12 12 12 13 12 10 11 11 11 11 10 10 9 8 9 8 7 6 4 4 5 9 12 15 17 19 19 18 18 18 18 17 16 16 15
17 17 18 17 16 16 16 14 14 13 12 12 15 13 10 10 10 10 11 10 10 10 9 8 8 7 6 5 3 5 7 9 12 15 18 19 18 17 17 17 17 16 16 16
17 18 19 18 18 17 16 16 15 16 15 14 14 14 12 11 11 10 11 11 10 10 9 9 8 7 6 4 3 4 6 8 10 13 15 17 18 16 16 17 17 17 17 16
17 18 19 19 18 18 18 18 17 16 16 15 13 13 12 12 11 11 11 10 10 9 9 9 9 7 6 3 3 4 5 8 10 11 13 15 17 16 16 17 16 16 17 16
18 18 19 20 20 19 20 19 19 18 18 16 14 13 14 12 12 12 11 11 10 10 10 9 9 8 6 5 4 4 5 7 9 10 11 13 15 17 17 17 16 16 17 16
20 20 20 21 21 21 21 21 20 21 20 19 17 15 16 14 13 12 12 12 12 11 10 10 9 8 6 6 5 5 6 8 9 10 11 12 14 15 16 16 17 17 17 17
23 23 21 20 21 23 23 23 22 22 22 22 20 17 18 15 15 14 13 13 13 11 11 10 9 8 7 7 7 7 7 9 9 10 11 12 14 15 16 17 17 18 18 18
26 25 23 22 22 24 24 24 24 24 23 23 21 19 20 18 17 16 14 14 13 12 11 10 9 8 8 8 8 9 10 10 11 12 12 13 14 15 17 18 19 19 20 20
29 29 28 28 28 28 27 26 26 26 26 25 23 22 21 21 19 18 16 15 15 14 13 12 11 10 9 9 9 10 11 12 12 13 13 14 15 16 17 19 20 21 21 22
31 31 31 30 30 30 30 28 28 28 28 27 26 24 23 23 21 20 19 17 17 16 15 14 13 12 11 11 10 10 11 12 12 13 13 14 15 16 18 20 21 21 22 22
33 33 33 32 32 33 32 29 30 30 29 29 28 26 26 26 24 22 21 20 18 18 17 16 15 14 13 12 12 11 12 12 12 13 14 14 15 16 18 20 21 22 22 23
31 32 33 32 32 34 30 29 29 30 30 31 30 29 28 28 26 24 23 22 21 20 19 18 17 16 15 14 14 14 13 13 13 14 15 16 16 17 18 20 21 23 24 25
29 29 30 31 31 31 29 29 28 29 29 30 30 29 28 27 27 26 24 23 22 21 21 20 19 18 18 17 16 16 16 17 16 16 17 17 18 18 19 20 21 22 24 26
26 27 28 29 29 30 28 27 26 27 29 28 28 28 27 27 28 27 25 24 23 22 22 21 21 20 19 19 19 19 19 19 19 19 19 19 20 20 21 21 23 24 25 27
24 25 26 27 28 28 27 25 25 26 27 26 27 27 28 28 28 27 26 25 24 23 23 23 23 22 21 21 21 21 21 21 21 22 22 22 22 23 24 25 25 26 28 29
23 24 25 25 26 26 25 24 24 25 25 25 25 26 28 29 28 28 28 27 26 26 25 25 24 24 24 23 23 23 23 24 25 24 24 24 25 25 26 27 28 29 30 31
22 22 22 23 24 25 24 23 23 24 24 24 25 26 27 28 28 29 29 28 28 27 27 26 26 26 26 25 24 25 25 25 25 26 25 26 27 27 28 29 30 32 33 33
21 21 21 21 21 22 22 22 23 23 24 24 25 26 27 27 28 29 28 28 28 28 28 27 26 25 25 25 25 26 25 25 25 26 27 27 28 29 30 31 32 33 34 35
19 19 19 19 19 20 20 20 21 22 23 23 24 25 26 27 27 28 28 27 26 26 25 25 25 25 25 26 26 26 26 27 27 28 28 28 30 30 31 32 33 34 35 36
16 16 17 17 17 18 18 18 20 21 22 22 23 24 25 26 27 27 26 26 25 24 24 25 24 24 25 26 26 27 27 28 28 29 29 30 31 31 32 34 35 36 37 38
Wind_Direction
266 261 257 254 252 249 250 253 257 265 277 283 290 294 298 302 304 307 310 312 312 316 318 314 306 298 284 273 258 243 230 217 213 213 211 215 217 218 223 224 221 222 221 218
259 255 253 253 253 250 252 253 256 264 276 283 291 296 298 299 303 308 311 310 311 315 320 320 317 306 283 270 258 243 228 216 212 210 210 213 214 217 220 220 218 217 216 216
253 252 253 253 250 248 251 252 254 261 278 286 291 300 299 302 303 306 310 311 312 317 322 325 326 316 292 275 258 238 223 212 210 211 214 215 215 215 216 217 217 216 217 217
250 251 250 248 247 245 246 251 257 267 273 278 288 293 297 304 306 309 312 314 316 319 323 324 328 323 304 273 254 234 217 209 209 212 212 213 213 213 214 217 217 217 217 217
248 248 247 245 243 242 243 250 257 264 271 277 287 289 292 299 307 312 317 318 319 322 324 326 327 327 312 280 252 230 215 210 210 208 207 209 211 214 216 218 218 217 217 217
247 248 247 245 244 244 246 252 260 269 274 278 281 284 294 296 305 311 318 322 325 325 327 333 332 326 316 299 260 234 216 208 207 207 209 210 213 216 218 220 219 218 218 216
247 247 247 245 244 246 247 250 258 266 271 277 277 281 287 290 302 306 312 319 325 326 328 333 338 334 322 307 269 233 217 214 212 209 209 211 211 213 215 216 218 220 220 219
240 243 245 245 242 243 246 245 245 249 259 270 279 279 282 292 296 302 308 312 320 324 327 327 333 335 326 312 275 224 212 207 207 207 208 210 212 215 215 216 219 221 222 223
235 237 244 244 244 241 244 245 246 251 257 264 269 275 279 284 287 295 304 307 314 320 326 329 330 328 324 306 258 218 208 203 199 202 204 207 208 213 215 216 218 221 223 225
236 236 242 243 245 246 244 245 249 251 256 262 272 276 279 276 282 286 294 304 309 312 315 322 321 318 315 294 243 218 206 206 203 203 210 214 213 215 218 217 218 222 224 225
239 238 242 243 244 247 249 250 253 253 253 258 265 270 269 272 276 280 286 291 298 306 309 313 311 309 300 285 258 231 219 215 210 209 216 217 215 218 220 219 222 225 225 227
241 241 241 245 247 248 249 251 252 254 260 263 262 265 263 266 270 273 279 286 288 295 305 309 301 294 290 273 254 242 233 229 228 225 221 218 217 218 222 225 228 231 231 235
242 242 245 251 254 251 250 251 254 256 258 261 262 266 264 263 267 267 272 280 282 284 293 299 291 282 282 273 257 250 247 242 239 236 227 226 227 227 229 232 234 236 238 243
245 245 242 242 247 252 253 254 254 255 257 259 261 260 261 261 263 262 263 272 275 276 283 287 279 275 274 269 263 255 252 249 247 243 239 238 238 235 236 239 241 242 245 249
248 249 248 247 249 254 256 257 257 256 255 256 258 257 257 256 258 256 256 264 268 269 272 274 272 271 271 268 266 258 251 248 247 245 242 240 239 241 244 244 246 248 252 254
250 252 254 255 256 257 257 256 256 256 256 256 256 254 254 254 254 251 250 256 261 263 265 266 267 267 265 266 263 261 255 251 247 244 241 241 245 249 251 251 252 254 257 259
251 254 256 257 259 260 260 258 257 256 254 254 254 250 248 249 250 249 246 249 253 257 261 261 263 263 262 265 261 259 259 254 248 245 245 247 251 257 259 257 256 258 261 262
251 253 256 258 259 261 262 260 257 256 253 253 252 249 246 246 245 245 245 247 249 255 256 254 255 257 259 260 258 254 253 251 249 248 251 254 257 261 262 260 260 260 260 263
252 254 257 259 262 263 263 261 258 254 250 249 248 246 244 243 241 241 242 244 247 251 252 250 249 252 255 254 253 253 255 254 253 252 254 256 259 262 262 262 263 265 265 266
254 255 257 259 261 263 262 259 257 254 251 246 245 242 240 239 239 238 238 240 243 247 247 246 246 249 251 251 251 252 255 256 255 256 258 261 263 263 264 265 267 269 270 269
255 257 258 260 261 262 260 258 255 251 248 244 240 237 234 234 235 236 235 236 240 242 242 243 245 247 249 252 253 254 257 258 258 260 261 263 265 266 268 269 270 272 272 273
255 257 259 260 259 259 259 257 252 249 244 239 235 233 231 232 233 233 234 236 238 240 240 244 247 248 249 250 254 255 258 259 260 261 263 265 267 269 271 272 274 275 276 277
253 255 256 257 257 258 256 254 249 245 238 234 232 229 229 229 230 231 233 236 238 238 240 243 247 250 250 250 252 256 258 259 260 264 266 267 267 268 271 272 275 277 277 277
255 255 256 257 257 257 254 251 246 239 234 232 230 228 227 228 228 230 231 233 235 236 239 241 243 247 249 250 252 254 256 260 262 265 268 269 270 271 273 275 277 279 279 279
255 256 256 257 256 255 253 248 241 234 230 227 225 225 226 226 227 230 231 231 233 234 236 239 242 245 247 250 254 255 257 261 264 267 269 270 272 274 275 277 278 279 280 281
255 256 256 255 252 254 250 242 237 231 227 224 225 224 223 224 225 226 227 230 233 236 236 238 241 245 248 252 255 257 261 263 265 268 270 272 274 275 277 278 279 280 281 282
Height
5864 5865 5865 5866 5867 5868 5870 5871 5871 5871 5871 5871 5871 5871 5869 5868 5866 5864 5861 5858 5855 5852 5850 5847 5844 5842 5840 5840 5840 5841 5843 5845 5849 5852 5856 5860 5863 5867 5869 5872 5874 5876 5878 5880
5860 5861 5861 5861 5863 5864 5866 5867 5868 5868 5868 5869 5869 5868 5867 5865 5863 5861 5859 5856 5853 5850 5847 5844 5842 5839 5838 5837 5837 5838 5840 5843 5846 5850 5854 5857 5861 5864 5867 5870 5872 5874 5876 5878
5855 5857 5857 5858 5860 5861 5863 5864 5865 5865 5865 5866 5866 5866 5864 5862 5860 5858 5856 5853 5850 5848 5845 5842 5839 5837 5835 5835 5834 5835 5837 5840 5843 5847 5851 5855 5858 5861 5865 5868 5870 5872 5874 5876
5851 5852 5853 5854 5856 5858 5859 5860 5861 5862 5863 5865 5864 5864 5862 5859 5857 5855 5853 5851 5848 5845 5843 5841 5838 5836 5834 5833 5832 5833 5834 5837 5841 5845 5849 5852 5856 5859 5863 5865 5868 5870 5872 5874
5847 5848 5849 5851 5853 5854 5856 5857 5858 5859 5860 5861 5861 5861 5862 5857 5855 5853 5851 5848 5846 5844 5842 5839 5837 5834 5832 5831 5831 5831 5833 5835 5838 5842 5846 5850 5854 5857 5860 5863 5865 5868 5870 5873
5842 5844 5845 5847 5848 5850 5852 5854 5855 5856 5858 5859 5859 5858 5858 5855 5853 5850 5848 5846 5844 5842 5840 5838 5835 5833 5832 5830 5830 5830 5832 5834 5837 5841 5844 5848 5851 5854 5857 5860 5863 5866 5869 5871
5838 5840 5841 5843 5845 5846 5848 5851 5854 5855 5856 5857 5855 5854 5855 5852 5850 5848 5846 5844 5843 5841 5839 5837 5835 5833 5831 5830 5829 5829 5831 5832 5835 5839 5842 5845 5849 5852 5855 5858 5861 5864 5866 5869
5835 5837 5838 5839 5841 5843 5845 5848 5851 5853 5854 5854 5851 5850 5851 5849 5847 5845 5844 5842 5841 5839 5838 5836 5834 5832 5830 5829 5828 5829 5830 5832 5834 5837 5840 5844 5847 5849 5852 5856 5859 5861 5864 5867
5832 5834 5834 5835 5837 5839 5841 5843 5846 5848 5848 5849 5849 5848 5847 5846 5844 5843 5842 5840 5839 5838 5836 5835 5833 5831 5830 5829 5829 5829 5830 5832 5834 5836 5839 5842 5845 5848 5850 5853 5856 5859 5861 5864
5827 5829 5830 5831 5833 5835 5837 5839 5840 5842 5844 5845 5846 5846 5845 5843 5842 5841 5839 5838 5837 5836 5834 5833 5832 5830 5830 5829 5829 5829 5830 5831 5833 5835 5838 5840 5843 5846 5848 5851 5854 5856 5859 5861
5823 5825 5827 5828 5829 5831 5833 5834 5835 5838 5839 5841 5842 5845 5841 5839 5839 5838 5837 5836 5835 5834 5832 5832 5831 5830 5829 5829 5829 5830 5830 5831 5833 5835 5836 5838 5841 5843 5846 5849 5851 5853 5856 5858
5817 5820 5822 5824 5824 5826 5827 5829 5831 5832 5833 5834 5836 5841 5836 5836 5835 5834 5834 5833 5832 5831 5830 5829 5829 5828 5828 5828 5828 5829 5830 5831 5832 5833 5835 5837 5839 5842 5844 5846 5849 5851 5853 5854
5811 5814 5817 5819 5821 5821 5821 5823 5824 5826 5828 5828 5831 5835 5831 5831 5831 5831 5830 5830 5829 5829 5828 5827 5826 5826 5826 5827 5827 5828 5828 5829 5830 5831 5833 5835 5837 5839 5841 5844 5846 5847 5849 5851
5805 5807 5811 5814 5814 5813 5815 5816 5818 5820 5821 5823 5825 5827 5826 5826 5826 5826 5826 5826 5826 5826 5825 5825 5825 5825 5825 5825 5826 5826 5827 5827 5828 5830 5831 5833 5834 5836 5838 5840 5842 5843 5845 5846
5796 5799 5801 5803 5805 5806 5807 5809 5810 5812 5814 5816 5818 5819 5820 5820 5820 5821 5822 5822 5822 5822 5822 5822 5822 5822 5823 5823 5824 5824 5825 5825 5826 5827 5828 5830 5831 5833 5835 5836 5838 5839 5840 5842
5788 5790 5792 5795 5796 5797 5798 5801 5802 5803 5805 5807 5809 5811 5812 5812 5814 5815 5816 5817 5818 5818 5819 5819 5819 5820 5820 5821 5821 5822 5822 5823 5824 5825 5826 5827 5828 5830 5831 5832 5833 5834 5836 5836
5780 5782 5784 5786 5787 5787 5789 5793 5793 5794 5796 5798 5800 5803 5804 5805 5807 5809 5811 5812 5813 5814 5815 5815 5816 5816 5817 5817 5818 5819 5819 5820 5820 5822 5823 5824 5825 5826 5827 5828 5829 5830 5830 5831
5772 5774 5775 5777 5778 5778 5784 5783 5784 5785 5787 5789 5790 5793 5795 5797 5799 5802 5804 5806 5808 5809 5810 5811 5812 5813 5813 5814 5814 5815 5816 5817 5817 5818 5819 5820 5821 5822 5822 5823 5823 5824 5824 5825
5764 5765 5767 5768 5769 5770 5773 5773 5774 5775 5777 5779 5781 5783 5786 5789 5792 5794 5797 5800 5802 5803 5804 5806 5807 5808 5809 5810 5811 5812 5812 5813 5814 5814 5815 5816 5817 5817 5817 5817 5817 5818 5818 5818
5756 5757 5759 5759 5760 5761 5764 5764 5764 5767 5768 5770 5772 5775 5778 5781 5784 5788 5790 5793 5795 5797 5798 5800 5801 5802 5803 5805 5806 5807 5808 5808 5809 5810 5810 5811 5812 5812 5812 5812 5812 5812 5811 5811
5749 5749 5750 5751 5751 5752 5754 5756 5757 5759 5761 5762 5764 5766 5770 5773 5777 5780 5783 5785 5788 5790 5792 5793 5795 5796 5798 5799 5800 5801 5802 5803 5803 5804 5804 5805 5805 5805 5805 5805 5805 5805 5804 5803
5741 5742 5743 5743 5743 5746 5746 5747 5749 5750 5751 5753 5756 5759 5762 5765 5769 5772 5775 5778 5781 5783 5785 5787 5789 5790 5792 5793 5794 5795 5796 5796 5797 5798 5798 5798 5798 5798 5798 5798 5797 5797 5796 5795
5734 5735 5735 5736 5738 5737 5738 5739 5740 5742 5744 5746 5749 5752 5755 5758 5762 5765 5768 5771 5773 5776 5778 5780 5782 5784 5785 5787 5788 5789 5789 5790 5791 5791 5791 5791 5791 5791 5791 5790 5789 5788 5787 5785
5728 5728 5728 5728 5729 5729 5730 5731 5732 5734 5736 5739 5742 5745 5748 5752 5755 5758 5761 5764 5766 5769 5772 5774 5775 5777 5779 5781 5782 5782 5783 5783 5784 5784 5784 5784 5784 5783 5782 5781 5780 5779 5777 5776
5722 5722 5722 5722 5722 5722 5723 5724 5725 5727 5729 5732 5735 5738 5742 5745 5749 5751 5754 5757 5760 5762 5764 5767 5769 5771 5773 5774 5775 5775 5776 5776 5777 5777 5776 5776 5775 5775 5773 5772 5771 5769 5768 5766
5716 5716 5716 5716 5717 5717 5717 5718 5719 5721 5723 5726 5730 5733 5736 5739 5742 5745 5748 5751 5754 5756 5758 5761 5763 5764 5766 5767 5767 5768 5768 5769 5769 5769 5768 5767 5766 5765 5764 5762 5761 5759 5757 5755